WESTFORD NEEDLES, 2949

Orbit data source: Space-Track

WESTFORD NEEDLES, 2949 is space debris in LEO originally from a launch on Thu, 09 May 1963 UTC launched from the Air Force Western Test Range (AFWTR). Debris objects in space refer to the collection of defunct objects orbiting the Earth. Examples of debris include non-operational satellites, rocket bodies, and fragments generated from explosions, collisions, or faulty payload assembly.

Loading next visibility...
Identifier
2949, 1963-014AS
Orbit
LEO
Country
Flag of USUS
Related business
Manufacturer
Unknown
Mission
Spacecraft
Bus & Motor
Unknown
Mass
Unknown
Launch date (UTC)
1963-05-09 (63 years ago)
Launch vehicle
Unknown
Launch site
Air Force Western Test Range (AFWTR)
Object type
Payload
Rocket body
Debris
Shape & HBR
Unknown shape, 0.2 m
Radar Cross Section
Medium (>0.1 m² and <1 m²)

Expand to show TLE details & history
Last TLE update: 1 day ago

TLE from 1 day ago
0 WESTFORD NEEDLES
1 02949U 63014AS  26174.49545586  .00002187  00000-0  41739-1 0  9997
2 02949  85.5309 357.5410 2328577  78.0076 353.9916  8.85916049396366
Epoch: 2026-06-23T11:53Z
TLE epoch observation values (Epoch: 2026-06-23T11:53:27.386Z)
Latitude
67.74564°
Longitude
-81.53632°
Altitude
1,222.904 km
Speed
8.043 km/s
True Right ascension
00h 33m 58s
True Declination
67° 37' 56"
Sunlit
Object was in daylight at epoch
Visualization orbit readout
Latitude
Unknown
Longitude
Unknown
Altitude
Unknown
Speed
Unknown
Apparent Right ascension
Unknown
Apparent Declination
Unknown
Sunlit
N/A
Visualization observer readout
Local Sidereal Time
00:30:49
Azimuth
Unknown
Elevation
Unknown
Doppler factor
Unknown
Orbital elements
Apogee altitude
5,782.28 km
Perigee altitude
1,188.649 km
Semi-major axis
9,863.602 km
Eccentricity
0.23286
Inclination
85.5309°
RAAN
357.541°
Arg. of periapsis
78.0076°
True anomaly
350.08978°
Mean anomaly
353.9916°
Eccentric anomaly
352.17519°
Mean motion
2.21559 °/min
Orbital period
162.48 mins
BSTAR
0.041739
Loading maneuver chart data...
Computing Atmospheric mass density...

Documentation

Showing up to 5 results
|